Location: Betpouey
(42.8833°N, 0.0333°E)
Time: 08:13:15
(UTC+00:00)

Meteor 1-27 Rocket - Pass Details

Date: 01 December 2020
Orbit: 830 x 909 km, 81.3° (Epoch: 17 January)

Event Time Altitude Azimuth Distance (km) Brightness Sun altitude
Rises 18:12:49 0° 165° (SSE) 3,360 6.8 -18.9°
Reaches altitude 10° 18:15:21 10° 158° (SSE) 2,433 6.0 -19.4°
Enters shadow 18:20:20 38° 93° (E) 1,254 4.1 -20.3°
